Wetbulb
51.19 50.57 50.50 50.74 50.48 50.53 50.41 50.51 50.17 50.07 50.33 50.86 51.40 52.04 52.78 53.02 53.38 51.42 47.07 52.19 56.11 57.96 57.77 51.63 51.15 50.90 52.95 53.25 54.95 54.86 47.49 45.25 46.56 47.20 49.41 60.27 58.34 60.87 63.75 62.70 63.62 64.17 64.24 65.62 66.93
49.87 50.25 50.30 50.42 50.02 50.17 49.77 49.91 49.79 49.99 50.40 50.49 50.85 51.37 51.77 52.70 49.24 47.48 54.23 59.75 60.00 58.89 51.22 48.76 49.56 49.92 49.80 51.21 52.77 50.99 47.25 46.96 50.41 50.95 50.46 59.43 58.53 59.85 61.00 61.37 61.24 62.48 65.72 66.34 66.54
49.23 49.34 49.82 49.92 49.99 49.84 49.64 49.44 49.47 49.60 50.06 50.20 50.48 50.90 51.15 51.76 47.69 47.62 61.33 58.89 60.15 57.14 50.83 50.44 51.75 49.89 47.94 50.05 50.07 50.54 47.23 50.01 50.50 52.11 52.88 58.12 58.23 62.80 58.72 58.56 61.59 60.69 63.16 64.24 64.79
49.06 49.06 49.06 49.13 49.43 49.19 49.14 49.05 49.27 49.40 49.66 49.94 50.31 50.63 51.00 49.38 40.50 51.93 60.44 60.03 60.17 53.85 49.42 48.39 49.64 47.28 46.14 46.15 50.21 47.47 50.40 50.49 51.11 52.34 52.76 57.63 56.06 53.54 58.95 59.93 64.13 63.76 63.10 63.08 63.09
48.58 48.43 48.63 48.95 48.95 48.96 48.73 48.59 48.75 49.16 49.61 49.87 50.19 50.45 49.15 45.65 45.38 52.14 60.61 60.34 55.64 51.71 47.73 47.92 47.77 47.45 45.25 47.25 49.09 48.18 49.79 50.93 51.53 51.86 53.55 58.57 54.97 52.89 58.69 57.47 63.02 63.27 63.01 62.18 61.94
47.92 47.97 48.05 48.21 48.49 48.33 48.25 48.23 48.42 49.14 49.77 50.40 50.46 50.07 46.19 39.50 51.24 52.03 52.28 57.53 53.70 48.45 49.82 49.17 48.61 49.66 48.36 47.91 47.73 50.29 50.43 50.56 51.06 51.87 54.67 53.59 55.75 59.27 55.95 56.47 61.20 62.42 61.61 61.72 61.69
47.79 47.81 47.76 47.83 47.85 47.87 47.94 48.14 48.41 49.00 50.26 51.14 50.85 49.36 45.25 44.66 52.68 51.23 53.60 53.90 55.37 49.41 49.14 50.18 50.18 48.86 49.83 47.83 50.88 50.31 48.05 49.38 50.14 51.82 53.16 54.52 52.09 53.96 54.16 61.05 60.68 60.78 60.68 60.97 61.15
47.79 47.33 47.33 47.06 47.00 47.20 47.85 48.68 49.00 49.67 51.56 51.71 51.27 49.15 42.87 52.76 53.93 51.78 52.11 52.21 52.53 51.16 50.96 51.20 51.58 49.73 48.81 50.50 48.85 46.86 48.19 43.86 49.81 51.95 52.94 53.38 49.34 56.91 59.75 59.80 59.21 58.96 59.06 59.22 60.12
47.32 46.99 47.17 47.89 47.88 48.06 48.19 48.49 49.12 51.16 52.13 51.24 49.95 48.31 44.34 54.36 50.33 49.82 50.63 49.82 50.75 50.85 51.29 51.87 50.22 47.11 48.10 45.13 43.88 45.50 41.39 43.66 47.05 52.22 52.36 54.09 49.86 55.34 60.62 58.82 57.51 57.35 57.16 56.99 57.82
46.44 46.21 46.75 47.57 47.63 47.65 47.61 48.59 50.93 50.82 52.51 53.03 52.44 45.75 48.51 46.22 47.70 48.02 49.81 51.79 48.92 48.92 47.78 46.58 45.73 43.42 44.71 43.23 38.73 40.67 42.02 44.57 45.55 49.33 52.32 51.32 51.60 56.69 58.16 57.79 56.12 56.27 56.29 56.37 56.36
46.17 46.04 46.22 47.46 47.31 47.48 47.21 48.60 47.71 46.66 48.16 45.37 45.65 45.16 46.76 48.15 49.65 45.92 48.33 50.13 49.56 46.54 40.82 43.77 40.05 38.99 42.14 44.78 45.50 45.72 44.56 44.00 47.14 50.64 50.86 50.74 51.37 53.92 55.64 56.63 54.91 54.68 55.42 56.07 56.26
45.64 45.82 46.24 46.97 47.60 47.72 47.24 46.06 44.50 45.93 38.70 45.42 46.04 46.82 49.43 49.52 44.09 46.48 48.54 45.83 45.47 40.39 42.51 41.02 38.32 42.97 44.93 45.37 45.53 45.16 43.86 43.52 46.51 50.90 50.86 49.74 48.89 53.54 53.87 55.94 56.14 55.26 55.65 56.26 57.37
45.36 45.71 46.15 47.58 47.55 48.89 47.02 47.79 50.72 49.98 38.69 42.49 46.34 44.41 45.25 47.89 43.80 44.81 46.74 44.93 44.13 41.16 40.81 39.23 41.15 44.23 43.95 43.88 43.52 44.33 43.20 44.34 43.69 47.37 51.27 49.29 47.07 51.46 55.65 56.86 57.55 57.27 57.57 57.76 58.15
45.47 46.31 46.98 47.34 45.91 47.52 46.89 48.74 50.67 51.08 34.95 40.81 42.54 44.86 46.36 46.70 42.64 47.81 48.24 44.61 44.52 41.02 41.97 40.95 44.07 42.99 42.35 41.93 43.88 40.91 45.85 45.82 45.09 46.88 41.83 49.36 39.51 47.16 51.68 52.60 55.01 56.38 57.40 58.24 58.85
46.18 46.22 46.76 46.61 44.73 45.10 46.79 49.06 50.91 47.63 24.48 39.70 42.61 50.84 47.65 43.75 44.44 44.20 48.74 44.95 41.45 42.44 42.94 40.73 41.55 41.61 41.12 42.29 44.81 42.62 46.67 45.18 45.23 45.61 45.68 45.06 42.12 45.29 51.28 49.80 52.33 55.66 57.02 57.99 59.09
46.37 46.18 46.72 47.96 48.46 48.75 49.97 50.33 48.30 34.24 24.01 36.58 42.90 42.30 42.11 43.44 43.36 44.90 44.75 46.70 46.10 43.45 43.84 42.86 46.08 44.55 43.06 44.69 45.15 46.35 44.83 44.63 45.08 43.87 38.38 42.86 42.47 42.11 46.71 49.93 51.99 55.23 57.06 58.20 58.67
46.12 46.51 45.93 47.44 43.62 50.39 50.71 46.39 32.71 26.67 38.34 35.29 36.46 40.19 39.92 39.94 40.70 41.79 40.16 40.25 38.20 36.29 37.67 41.21 42.14 44.55 45.65 41.64 44.53 44.42 42.68 35.64 33.41 34.26 34.86 43.79 41.24 43.84 48.56 51.76 53.24 53.87 56.33 58.11 58.94
45.67 45.97 48.83 49.70 50.31 51.01 47.45 38.33 25.88 32.58 33.46 38.34 37.32 37.64 35.50 39.71 40.34 40.01 39.39 37.03 40.88 40.42 38.25 36.34 34.61 41.99 44.72 42.51 40.63 41.61 42.11 37.14 29.58 31.14 35.71 43.06 38.13 42.37 50.37 52.13 54.55 55.57 56.91 58.32 58.36
45.58 50.00 48.37 49.46 51.33 50.43 40.66 30.48 29.57 33.17 36.31 34.50 35.84 35.10 35.95 40.31 39.34 39.84 38.08 38.13 40.42 41.15 37.18 37.22 36.77 43.73 44.18 44.23 43.32 41.25 38.19 44.06 40.14 40.67 36.85 40.19 43.08 47.64 50.23 50.67 52.05 53.87 55.33 56.43 57.71
42.92 46.21 45.11 51.36 52.00 47.57 38.22 30.28 33.62 37.60 37.51 36.49 30.39 35.32 31.16 33.62 36.49 37.94 38.31 40.44 40.13 42.69 44.18 41.06 36.39 42.51 43.49 44.42 43.53 42.16 44.28 37.37 39.23 32.39 30.63 37.31 39.73 41.43 46.31 48.54 51.08 52.40 53.54 55.43 57.07
44.23 41.38 46.71 52.01 50.99 42.10 32.82 32.05 34.59 38.47 38.32 35.20 33.18 32.26 33.39 32.46 34.87 35.96 36.91 41.28 42.97 43.01 44.25 42.17 40.28 39.46 42.93 40.00 38.70 40.19 39.25 41.26 42.05 39.66 33.22 32.34 37.43 49.18 47.61 49.67 50.44 51.96 53.01 54.94 56.38
43.85 36.85 47.33 50.14 36.71 37.10 32.63 34.35 36.96 36.46 39.19 36.64 37.63 35.84 34.13 34.76 33.94 35.12 34.86 38.73 42.89 43.26 39.98 43.59 40.77 35.62 38.40 43.12 43.69 42.91 41.30 41.76 35.28 34.53 38.99 39.76 39.22 50.90 51.36 51.81 52.13 51.81 52.91 54.09 57.54
38.72 38.89 46.55 46.56 31.72 32.82 35.04 34.48 35.72 34.95 35.00 35.20 34.11 35.72 36.86 33.21 30.59 35.60 37.26 40.93 41.52 42.33 39.31 41.21 39.15 32.81 35.51 40.60 42.47 40.07 42.20 42.54 43.13 43.30 37.04 35.47 38.73 50.47 50.20 50.67 51.64 51.71 52.27 53.49 54.64
38.68 32.47 37.44 40.66 38.61 33.17 31.59 31.69 31.07 36.45 34.51 36.08 35.00 36.81 34.10 32.32 35.59 33.39 34.89 38.93 41.09 41.66 43.16 44.27 39.17 36.47 32.70 36.83 40.85 38.09 39.60 41.66 41.83 36.82 37.86 38.60 41.66 46.38 47.61 48.50 50.63 51.88 53.03 53.28 54.07
36.78 33.88 34.27 30.74 32.80 32.95 33.81 32.38 29.23 29.48 33.60 35.03 33.55 32.23 31.24 28.39 31.00 30.58 33.08 34.52 38.13 40.49 40.40 41.90 35.69 38.49 39.43 40.60 40.87 39.80 39.15 40.04 39.54 41.06 37.80 40.77 41.24 45.85 48.52 48.91 50.12 51.55 52.40 52.71 53.53
34.37 31.44 33.93 31.64 34.20 32.21 31.48 28.62 28.21 29.71 30.75 29.91 30.06 31.47 31.92 29.14 29.97 26.92 30.40 31.70 31.94 36.82 36.38 39.31 34.74 38.08 32.82 39.54 39.44 37.81 40.16 40.58 40.71 41.28 41.42 42.71 42.66 48.24 50.23 50.51 50.46 51.09 51.59 52.56 53.43
38.83 38.68 34.44 31.59 31.44 29.31 28.53 28.81 28.73 30.36 32.05 33.12 31.94 30.58 29.87 31.56 33.95 34.25 34.91 35.10 35.12 33.16 32.95 34.30 33.14 34.03 30.76 37.31 37.54 33.58 39.45 40.05 40.95 42.68 42.89 39.63 44.89 48.87 48.05 49.03 49.72 50.55 52.04 52.23 53.46
MSLP
1020.67 1020.29 1019.98 1019.52 1019.14 1018.75 1018.37 1018.02 1017.64 1017.28 1016.95 1016.55 1016.09 1015.75 1015.26 1014.78 1014.02 1012.60 1010.68 1008.80 1008.35 1008.69 1008.42 1007.79 1007.19 1007.12 1006.70 1005.51 1004.68 1004.19 1003.42 1002.06 1000.93 1000.02 999.13 999.91 1000.71 1001.42 1001.90 1003.67 1005.13 1006.13 1007.04 1009.02 1010.68
1020.80 1020.40 1019.96 1019.50 1019.02 1018.66 1018.21 1017.86 1017.48 1017.08 1016.69 1016.33 1016.00 1015.56 1015.10 1014.68 1013.61 1010.78 1008.09 1007.76 1007.87 1008.06 1008.03 1007.34 1006.19 1006.23 1005.68 1004.99 1004.11 1003.38 1002.53 1001.68 1000.85 999.86 998.97 999.99 1000.62 1001.42 1002.76 1003.91 1005.69 1006.74 1007.93 1009.69 1010.48
1020.91 1020.48 1019.93 1019.45 1018.98 1018.41 1017.92 1017.50 1017.05 1016.65 1016.25 1015.97 1015.66 1015.36 1015.00 1014.63 1011.98 1006.87 1005.79 1006.08 1007.14 1007.66 1007.62 1006.82 1005.79 1005.37 1004.94 1004.22 1003.45 1002.76 1001.96 1001.59 1000.61 999.69 999.39 999.88 1000.84 1001.36 1003.23 1003.80 1005.17 1007.42 1008.20 1009.46 1010.31
1020.95 1020.49 1020.00 1019.44 1018.90 1018.34 1017.70 1017.14 1016.68 1016.26 1015.92 1015.61 1015.39 1015.10 1014.72 1014.29 1010.05 1006.32 1006.11 1006.46 1007.00 1007.17 1007.29 1006.65 1005.37 1004.49 1004.00 1003.25 1002.62 1002.06 1001.99 1001.36 1000.30 999.57 999.60 1000.95 1003.00 1004.25 1004.79 1005.54 1004.93 1007.51 1008.86 1009.38 1009.96
1020.92 1020.40 1019.87 1019.30 1018.70 1018.08 1017.43 1016.88 1016.27 1015.79 1015.35 1015.08 1014.89 1014.88 1014.10 1011.62 1007.84 1005.76 1005.91 1006.43 1006.84 1006.92 1006.36 1005.80 1004.79 1003.89 1003.09 1002.64 1002.06 1001.35 1001.11 1000.94 1000.26 999.91 999.53 1001.04 1002.95 1005.72 1007.61 1006.22 1008.64 1008.12 1009.03 1010.21 1010.22
1020.82 1020.30 1019.73 1019.11 1018.47 1017.78 1017.03 1016.28 1015.79 1015.23 1014.73 1014.32 1014.36 1014.59 1013.67 1010.20 1006.04 1005.31 1005.27 1005.78 1005.80 1005.92 1005.34 1004.99 1003.93 1003.52 1002.64 1002.10 1001.30 1000.97 1000.90 1000.45 1000.06 999.93 1000.23 1000.81 1002.46 1004.02 1008.90 1008.01 1008.13 1010.04 1009.54 1010.68 1011.08
1020.75 1020.16 1019.56 1018.92 1018.17 1017.36 1016.55 1015.72 1014.94 1014.41 1013.81 1013.58 1013.76 1013.76 1011.95 1007.86 1005.32 1004.83 1005.20 1005.18 1005.37 1005.08 1004.60 1004.26 1003.77 1003.12 1002.55 1001.69 1000.98 1000.73 1000.58 1000.41 999.82 1000.25 1000.62 1001.32 1002.67 1005.03 1007.98 1009.97 1010.47 1010.14 1009.82 1011.00 1012.07
1020.70 1019.98 1019.26 1018.60 1017.81 1016.88 1015.90 1014.99 1014.14 1013.45 1012.94 1012.73 1013.10 1012.90 1009.59 1005.88 1005.64 1005.29 1004.97 1004.70 1004.60 1004.54 1004.17 1003.65 1003.31 1002.97 1002.50 1002.04 1001.29 1000.75 1000.55 1000.37 1000.27 1000.70 1000.88 1001.40 1003.15 1007.21 1007.68 1008.55 1009.52 1009.68 1010.79 1012.07 1012.49
1020.43 1019.74 1018.95 1018.19 1017.40 1016.37 1015.13 1014.05 1013.20 1012.55 1012.46 1012.49 1012.28 1011.40 1007.58 1004.62 1004.68 1004.09 1004.36 1004.23 1004.14 1004.14 1003.86 1003.54 1003.48 1003.37 1003.04 1002.02 1001.29 1000.72 1000.35 1000.14 1000.20 1000.48 1000.57 1001.50 1003.33 1005.92 1008.17 1008.43 1009.45 1010.37 1011.73 1012.88 1013.58
1020.37 1019.54 1018.66 1017.88 1017.03 1015.87 1014.53 1012.84 1011.71 1011.97 1011.61 1011.24 1010.28 1010.13 1006.23 1003.69 1003.06 1003.41 1003.54 1003.91 1004.03 1004.24 1004.27 1004.15 1003.82 1003.67 1002.77 1001.72 1000.27 1000.49 1000.55 1000.15 999.92 1000.23 1000.77 1001.84 1003.73 1006.53 1008.01 1009.33 1010.55 1011.03 1011.82 1012.77 1013.41
1020.18 1019.29 1018.38 1017.59 1016.71 1015.54 1014.40 1011.81 1010.79 1011.16 1010.52 1008.60 1007.14 1006.15 1003.84 1003.09 1003.12 1002.81 1003.02 1003.46 1003.59 1004.00 1003.84 1004.16 1003.60 1002.20 1001.61 1001.25 1000.82 1000.68 1000.49 999.71 999.72 999.72 1000.92 1001.65 1003.03 1005.93 1007.37 1008.00 1010.04 1010.96 1011.26 1011.85 1012.86
1020.03 1019.10 1018.11 1017.27 1016.28 1015.26 1014.34 1012.46 1012.60 1012.74 1010.44 1008.07 1006.53 1005.71 1004.63 1003.94 1003.51 1002.77 1002.57 1002.87 1002.73 1003.00 1003.60 1003.35 1002.15 1001.90 1001.72 1001.18 1000.83 1000.17 999.65 999.58 999.23 999.29 1000.71 1001.49 1002.63 1005.14 1006.29 1006.99 1008.07 1009.69 1010.33 1011.17 1011.96
1019.95 1018.97 1017.88 1016.66 1015.80 1014.24 1013.41 1012.93 1012.77 1012.92 1011.16 1006.27 1004.66 1004.25 1004.07 1004.17 1003.10 1002.24 1002.09 1002.11 1002.05 1002.41 1002.36 1001.83 1001.45 1001.70 1001.05 1000.65 1000.45 1000.03 999.28 998.86 999.03 998.83 1000.31 1000.95 1001.91 1003.69 1004.95 1005.87 1007.40 1008.51 1009.04 1010.13 1010.67
1019.80 1018.82 1017.58 1016.36 1015.49 1014.25 1013.19 1013.28 1013.20 1013.21 1010.78 1004.93 1003.52 1002.57 1002.74 1002.91 1002.03 1001.95 1001.09 1001.59 1001.50 1001.29 1001.48 1001.51 1000.87 1000.54 1000.44 1000.21 999.99 999.53 999.18 998.79 998.78 999.41 1000.14 1001.05 1001.20 1001.69 1003.28 1004.56 1005.59 1006.72 1007.46 1008.44 1009.36
1019.61 1018.64 1017.42 1017.06 1016.44 1014.28 1013.92 1013.56 1013.26 1013.05 1009.40 1004.56 1002.83 1002.69 1002.05 1002.33 1000.97 1000.78 1000.91 1001.01 1000.52 1000.49 1000.91 999.86 999.92 999.68 999.71 999.47 999.55 999.21 999.27 999.24 999.32 999.53 1000.31 1000.65 1001.36 1000.78 1001.82 1003.19 1003.95 1004.49 1006.07 1006.99 1008.30
1019.37 1018.42 1017.63 1015.81 1015.25 1014.53 1014.14 1013.80 1013.18 1012.11 1007.95 1004.38 1003.07 1002.80 1002.24 1002.10 1001.57 1000.23 1000.45 1000.61 1000.77 1000.12 1000.02 999.74 999.40 999.13 999.33 999.39 999.29 999.62 999.67 1000.00 1000.15 1000.04 1000.03 1000.35 1000.66 1000.59 1001.06 1001.87 1002.71 1003.51 1004.77 1005.88 1007.24
1019.05 1018.21 1017.64 1016.68 1015.45 1014.71 1014.31 1013.28 1012.37 1010.33 1007.21 1005.83 1005.04 1003.74 1002.85 1001.81 1001.34 1000.78 1000.33 1000.17 999.97 999.86 999.16 999.32 998.66 998.92 999.03 999.34 999.51 999.64 999.91 1000.29 1000.72 1000.26 999.70 1000.63 1000.53 999.73 999.80 1000.55 1001.41 1002.28 1003.52 1004.85 1006.17
1018.78 1017.57 1016.56 1015.42 1015.53 1015.01 1014.45 1013.34 1011.94 1009.78 1008.10 1007.12 1006.39 1005.27 1003.81 1002.35 1001.37 1000.99 1000.21 1000.04 1000.27 999.78 999.50 998.76 998.61 998.02 998.52 999.30 999.38 999.62 999.80 999.86 1000.15 1000.47 1000.61 1000.60 999.53 999.07 998.95 999.02 999.80 1001.23 1002.71 1003.98 1005.26
1018.35 1015.89 1015.63 1015.75 1015.58 1015.00 1014.62 1013.38 1011.76 1010.88 1009.88 1008.52 1007.16 1004.82 1003.87 1002.99 1002.34 1001.13 1000.94 1000.13 999.86 999.86 999.33 998.40 998.12 998.54 998.58 999.37 999.59 999.68 999.91 1000.13 1000.82 1001.21 1001.16 1000.09 1000.10 999.17 998.81 998.86 999.44 1000.26 1001.75 1003.17 1004.58
1018.45 1015.95 1015.59 1015.52 1015.32 1015.03 1014.71 1013.48 1012.45 1011.67 1010.62 1009.77 1008.53 1006.79 1006.66 1006.51 1004.73 1002.33 1001.17 1000.78 1000.07 999.90 999.71 998.90 998.45 998.16 998.32 999.16 999.45 999.56 1000.01 1000.64 1000.85 1001.45 1001.07 1000.40 999.33 998.72 998.89 998.95 999.47 1000.31 1001.11 1002.36 1003.50
1017.60 1015.26 1015.55 1015.09 1014.67 1014.25 1014.46 1013.78 1013.19 1012.42 1011.85 1011.14 1009.92 1008.65 1008.03 1007.53 1006.87 1004.95 1004.20 1002.49 1002.20 1000.85 1000.02 999.81 999.34 998.52 997.66 998.04 998.94 999.38 999.57 1000.22 1001.27 1001.78 1001.47 1000.73 999.42 998.05 997.86 998.67 999.20 999.92 1000.58 1001.40 1002.50
1017.28 1016.02 1015.94 1015.28 1014.86 1015.08 1014.84 1014.37 1013.97 1012.98 1012.44 1012.01 1011.12 1010.51 1009.67 1009.00 1007.31 1006.47 1006.80 1006.05 1005.12 1003.53 1001.69 1000.35 999.74 999.14 998.20 997.75 998.87 999.21 999.45 1000.14 1000.88 1001.04 1001.27 1001.08 1000.22 998.98 998.81 999.15 999.37 999.78 1000.09 1000.93 1001.84
1018.32 1016.97 1016.16 1015.73 1015.72 1015.52 1014.81 1014.31 1013.79 1013.31 1012.95 1012.69 1011.96 1011.81 1011.04 1010.24 1009.46 1007.74 1007.43 1007.79 1006.61 1005.03 1004.71 1003.64 1000.92 1000.05 999.13 998.25 998.26 998.83 998.83 999.41 1000.30 1001.23 1001.44 1001.25 1000.16 999.57 999.16 998.87 999.13 999.54 999.99 1000.54 1001.65
1019.36 1018.78 1018.24 1016.60 1016.32 1016.15 1015.34 1014.82 1014.29 1013.73 1013.65 1013.60 1012.88 1012.67 1011.92 1011.25 1010.54 1009.79 1009.47 1008.61 1007.97 1007.23 1006.01 1004.74 1002.92 1001.05 999.77 998.71 998.41 998.79 998.91 999.05 999.56 1000.35 1000.37 1000.18 1000.14 999.43 999.09 999.05 998.89 999.23 999.53 1000.13 1001.21
1021.11 1019.96 1020.15 1018.58 1017.44 1016.83 1015.92 1015.60 1015.41 1014.68 1014.73 1014.06 1013.50 1014.01 1013.24 1012.55 1011.88 1011.88 1011.27 1010.05 1009.09 1008.50 1007.18 1005.80 1004.05 1002.43 1001.04 999.74 998.83 998.64 998.62 998.62 998.67 999.07 999.53 999.64 999.36 998.81 998.43 998.72 998.72 999.13 999.47 999.98 1001.10
1022.39 1022.14 1021.35 1019.87 1018.32 1017.18 1017.14 1017.18 1016.48 1016.07 1015.72 1014.79 1014.29 1014.07 1013.89 1013.51 1014.32 1013.17 1012.49 1011.86 1010.74 1009.82 1009.11 1007.88 1005.94 1004.16 1002.58 1001.15 999.95 999.43 998.84 998.15 997.96 998.03 998.56 998.49 998.31 998.32 998.20 998.41 998.45 998.72 999.26 999.96 1001.04
1023.11 1022.84 1022.23 1020.57 1018.79 1018.18 1017.98 1017.81 1017.46 1017.27 1016.50 1015.82 1015.25 1014.78 1014.27 1014.34 1014.30 1013.71 1013.19 1012.52 1011.82 1011.14 1010.53 1009.55 1008.51 1006.51 1004.22 1002.68 1001.06 999.71 998.75 998.04 997.45 997.10 997.30 997.06 997.18 997.43 997.34 997.33 997.72 998.21 998.86 1000.02 1000.90
Wind_Speed
17 16 16 18 18 19 18 19 19 19 19 20 20 20 22 22 23 21 23 15 10 21 7 11 14 17 20 20 21 20 14 16 22 22 21 19 15 10 15 16 12 11 13 24 18
18 19 19 19 19 19 20 19 19 20 19 19 20 20 21 22 23 24 21 17 8 6 12 17 18 20 17 21 18 19 15 22 22 21 21 20 17 18 18 20 12 16 25 23 21
19 19 20 20 20 21 21 21 21 21 21 21 20 19 20 18 14 9 9 30 15 11 14 17 18 19 21 18 23 23 18 20 24 24 20 17 18 18 14 18 23 19 20 22 23
20 20 21 21 22 21 22 22 22 23 22 21 20 19 19 11 7 6 8 9 10 12 14 18 21 21 22 24 22 23 23 24 23 23 17 7 5 9 13 10 24 24 20 20 17
19 20 21 22 22 23 23 23 24 24 23 22 19 16 11 10 15 14 8 8 9 15 20 20 21 21 22 21 23 23 20 22 24 19 12 21 19 25 11 24 22 12 19 15 16
22 23 23 23 24 25 25 26 25 25 24 21 16 10 11 17 14 16 8 6 13 18 19 20 15 18 18 21 22 17 19 22 21 13 9 11 7 11 14 14 21 20 17 14 17
23 24 24 25 26 27 27 28 27 27 22 18 12 9 15 23 14 4 8 10 16 18 18 20 21 19 20 21 20 20 18 19 15 11 14 18 16 13 21 21 20 20 14 15 14
24 25 25 26 27 28 29 28 28 25 19 10 11 10 12 17 24 20 11 11 16 16 19 17 18 17 18 11 19 18 14 18 14 17 20 19 14 18 25 20 19 18 14 12 13
25 26 26 24 25 28 30 30 29 21 9 4 9 11 13 6 17 18 18 15 11 14 14 9 12 13 17 18 15 18 15 22 19 20 16 13 15 22 22 19 18 17 15 14 13
27 28 28 26 27 29 32 32 20 6 9 11 12 10 12 13 13 18 18 17 14 11 10 12 9 14 17 16 17 19 21 18 20 20 15 15 12 21 19 19 16 17 15 16 16
27 28 29 28 29 30 22 13 1 6 7 15 9 16 11 6 4 13 19 19 18 15 17 17 15 20 23 22 20 20 21 22 23 19 21 17 17 17 11 17 15 17 17 16 16
28 29 30 31 29 28 18 10 9 8 14 19 25 25 24 17 8 15 17 19 19 17 19 14 21 21 21 21 20 24 23 22 18 20 19 19 20 24 23 20 20 20 17 17 18
28 29 31 30 27 16 8 9 9 12 8 14 19 21 21 20 18 18 23 23 23 23 23 20 16 22 20 21 23 23 22 19 22 20 22 17 20 25 31 25 24 20 19 19 20
28 29 28 28 11 12 5 11 10 7 7 7 7 5 13 17 18 24 22 22 20 25 22 21 22 24 24 23 22 20 22 18 17 16 12 15 12 22 21 16 18 20 18 20 20
28 28 25 17 10 8 11 13 10 4 6 6 6 4 4 13 6 18 21 23 26 19 22 23 22 19 24 22 21 17 17 17 16 17 14 20 13 16 26 23 22 22 19 19 19
29 26 20 5 8 12 14 12 8 5 4 3 2 2 10 14 19 11 19 22 22 23 22 24 22 20 16 20 19 16 15 16 15 12 12 16 16 18 16 18 20 21 23 19 22
30 25 16 9 10 12 11 8 5 4 14 13 12 16 15 12 13 19 21 21 22 23 21 22 25 17 14 18 14 15 16 9 11 12 8 17 18 10 17 25 26 21 21 22 20
31 28 11 6 10 9 9 6 5 9 14 15 17 19 17 18 16 18 14 20 23 24 16 17 20 24 16 20 17 17 16 7 18 13 10 14 18 16 14 13 19 20 20 21 19
32 4 4 7 8 7 7 2 4 10 12 15 21 14 8 12 7 13 20 17 20 25 22 18 22 24 17 15 18 20 19 17 11 14 13 13 15 19 5 13 4 21 22 22 21
10 8 9 9 8 6 3 5 10 14 18 16 16 12 11 14 16 7 13 18 18 23 23 20 13 19 23 16 21 20 14 16 10 7 15 13 18 12 10 6 13 13 14 23 24
6 5 8 12 8 6 3 6 11 14 14 12 20 19 15 10 13 12 19 21 20 15 19 21 16 15 19 17 21 17 16 15 11 10 7 8 11 4 20 13 10 14 12 14 23
7 3 7 10 8 6 6 9 6 10 11 6 10 13 14 16 13 14 8 12 20 19 11 14 11 13 18 19 20 21 19 17 8 20 11 4 6 8 5 9 12 12 15 11 18
8 6 8 9 4 5 8 9 8 10 10 11 10 9 13 14 8 14 9 8 20 17 14 12 6 12 17 13 21 21 21 20 18 4 10 6 5 4 3 4 12 15 13 15 12
5 4 5 6 8 10 10 10 9 5 9 13 12 11 11 14 12 11 15 12 17 19 23 4 8 12 12 14 14 19 21 21 18 12 13 14 13 13 10 8 7 8 12 12 16
7 5 7 5 8 11 11 8 12 11 11 13 3 9 14 9 16 8 14 17 17 16 19 14 12 14 16 22 15 19 22 23 22 20 18 15 19 16 12 9 11 8 11 16 15
3 6 7 13 14 12 13 10 13 16 16 13 13 15 14 11 7 17 18 14 7 11 15 14 8 14 10 19 22 18 21 22 22 23 22 22 19 19 14 14 13 15 11 11 17
7 6 6 11 11 12 11 13 15 16 11 16 16 14 16 12 16 17 17 16 16 14 9 8 8 8 12 17 21 20 19 19 20 21 21 20 15 16 18 17 17 13 14 13 14
Wind_Direction
354 350 345 343 342 339 333 331 328 324 319 317 317 317 319 317 310 287 251 248 241 236 289 275 206 227 234 239 234 227 244 243 248 246 263 133 168 165 134 127 152 166 149 143 156
350 347 344 340 336 332 328 326 323 319 318 316 314 315 316 318 305 279 254 241 160 157 227 231 214 212 220 228 227 229 226 239 244 253 255 156 181 162 150 152 128 95 111 138 156
349 345 342 338 336 330 327 324 322 318 316 314 312 311 312 317 289 257 345 213 169 175 239 234 239 212 223 218 223 222 236 230 249 258 267 181 185 145 187 168 149 139 135 151 149
348 345 341 336 331 328 324 322 318 315 311 309 307 308 308 295 257 85 84 110 155 210 231 235 239 219 220 222 222 224 221 245 241 247 256 117 72 8 270 35 134 138 140 154 153
344 341 338 334 331 327 323 319 316 312 307 301 300 302 307 221 244 271 140 166 196 201 214 216 229 227 218 224 226 225 224 225 248 263 256 148 152 170 174 98 95 122 146 151 141
344 341 338 333 329 326 321 317 313 308 301 292 289 286 256 252 257 249 282 168 208 197 210 220 225 226 234 229 230 218 223 245 230 240 269 246 190 114 35 28 128 158 143 141 123
342 340 337 333 329 324 319 315 311 307 297 282 263 239 255 238 266 271 246 223 219 205 217 215 231 231 236 229 236 231 215 238 223 218 233 232 220 142 138 167 167 137 132 128 144
342 340 338 334 329 324 317 313 308 304 297 268 213 225 259 257 232 252 248 225 214 204 233 218 230 247 250 252 250 238 225 222 200 214 226 228 215 134 160 152 149 135 141 134 137
341 339 337 333 331 323 316 312 304 293 264 194 181 211 258 189 229 235 220 218 209 209 229 252 228 237 246 225 225 226 206 227 204 203 211 217 234 145 183 150 147 148 145 140 157
342 337 335 334 329 323 318 303 280 270 234 194 255 191 241 242 220 214 203 210 187 204 207 228 212 218 229 214 205 196 221 211 221 196 199 198 204 142 149 149 161 160 155 158 169
340 337 333 331 327 321 321 310 288 179 268 250 211 237 320 242 343 206 190 197 192 197 197 205 204 210 208 208 218 205 208 220 213 178 197 203 196 154 164 160 180 186 181 176 183
340 335 332 327 322 317 304 356 23 328 294 267 258 264 270 283 278 213 207 195 196 199 203 189 218 212 219 213 219 237 206 219 240 190 189 202 215 156 177 200 184 190 187 186 180
338 334 329 324 320 302 313 21 353 352 266 284 232 238 238 241 251 258 208 196 200 203 199 214 214 224 215 210 213 228 239 215 223 231 184 203 218 174 181 181 180 187 181 188 188
337 333 329 325 282 320 27 351 342 344 280 186 190 244 217 223 246 233 217 201 212 208 207 220 228 197 217 222 216 221 232 247 218 169 179 210 217 225 161 182 190 178 186 185 181
335 332 328 325 305 330 342 333 320 276 303 0 97 99 190 211 268 202 237 203 218 203 211 212 213 216 215 209 222 225 222 235 240 207 199 195 225 250 171 189 186 178 187 180 173
333 331 334 10 261 346 333 316 281 249 255 335 356 355 200 211 253 258 203 206 219 229 216 229 219 217 216 228 221 213 231 217 247 249 205 213 220 239 186 181 193 188 177 187 173
330 325 320 308 334 334 319 282 273 261 325 359 351 330 326 296 216 249 190 196 212 217 219 216 231 207 225 225 214 217 223 185 216 225 228 198 238 206 231 194 191 191 180 186 176
326 314 286 331 336 333 302 284 244 316 333 4 335 308 277 264 232 212 228 211 211 219 221 213 215 207 183 218 205 222 222 204 205 214 214 225 220 237 221 204 180 179 187 182 178
317 292 0 12 333 327 308 290 344 357 324 340 319 309 340 339 303 230 223 222 210 225 220 213 222 211 194 207 228 205 222 231 223 228 224 217 226 226 279 200 182 175 178 185 181
313 286 35 347 330 293 279 297 17 350 348 332 307 310 20 341 323 278 208 227 245 209 235 246 238 211 207 204 222 236 206 223 227 212 229 238 221 209 171 197 171 184 195 185 179
253 300 19 328 281 286 8 360 349 352 344 325 320 307 322 328 306 313 4 45 8 294 220 242 251 258 212 192 203 221 231 210 232 237 234 237 248 276 179 184 196 187 204 204 178
309 348 19 319 41 1 343 330 311 331 335 337 308 340 356 338 317 308 43 351 0 329 288 258 232 244 249 191 198 221 223 207 197 221 230 241 255 24 106 192 193 222 191 208 164
328 326 17 304 22 344 1 317 327 341 344 341 325 340 322 317 308 325 12 344 349 356 11 342 267 223 238 234 184 214 223 222 217 194 234 242 240 125 58 201 177 196 222 183 182
354 337 350 329 357 343 344 327 340 18 343 331 318 326 347 330 315 306 351 348 341 4 331 271 274 261 227 228 194 205 222 223 219 208 223 234 235 249 184 208 208 195 203 192 171
357 333 13 307 338 318 325 334 339 348 355 324 332 351 337 331 320 12 340 342 339 4 345 351 276 257 259 249 246 209 220 226 218 226 213 225 235 240 209 216 214 195 223 185 163
67 350 334 287 298 320 35 355 342 336 331 316 332 336 326 322 350 320 330 333 333 340 344 344 292 296 272 266 258 260 271 220 234 214 228 221 222 227 190 209 212 191 198 175 166
9 343 341 302 333 350 349 351 338 320 314 323 322 316 304 359 320 311 296 282 276 289 315 322 351 326 260 251 259 253 237 260 225 233 219 231 217 220 225 221 200 223 166 185 181